Satellite-Ground Cal/Val Site Overpasses Predictions

Prediction of Satellite NPP Overpassing Cal/Val Site: Antarctic Dome C

Ground Cal/Val Site Location: Latitude: -75.10, Longitude: 123.35; Satellite-Ground Site NADIR distance within 100 km.

Table of predicted overpasses for the next 14.0 days since TLE Epoch: 2/11/2023
Interval Starting Time Ending Time Minimum Distance Time Minimum Distance (km)
1 02/12/2023 07:33:05 02/12/2023 07:33:35 02/12/2023 07:33:20 4.31
2 02/15/2023 14:56:33 02/15/2023 14:57:01 02/15/2023 14:56:47 23.16
3 02/16/2023 14:37:50 02/16/2023 14:38:05 02/16/2023 14:37:57 83.85
4 02/17/2023 07:39:22 02/17/2023 07:39:50 02/17/2023 07:39:36 31.35
5 02/18/2023 07:20:37 02/18/2023 07:20:55 02/18/2023 07:20:46 78.89
6 02/20/2023 15:02:50 02/20/2023 15:03:14 02/20/2023 15:03:02 59.71
7 02/21/2023 14:44:00 02/21/2023 14:44:25 02/21/2023 14:44:13 49.43
8 02/22/2023 07:45:41 02/22/2023 07:46:02 02/22/2023 07:45:52 66.13
